DECAYED

STARLINK-4511, 53527 (Decayed)

Orbit data source: Space-Track

STARLINK-4511, 53527 was a payload satellite owned by SpaceX/Seattle (US) in LEO that was launched on Fri, 19 Aug 2022 UTC via an FALCON 9 launch vehicle from the Air Force Eastern Test Range (AFETR). Payload-class satellites include a variety of spacecraft equipped with specific instruments for various scientific and technological missions. These include communications satellites like Starlink; space stations such as the ISS; scientific satellites like the Hubble; Earth observation satellites from companies like Planet Labs, Umbra, and HawkEye 360; GPS; miniature CubeSats for education and research; and military/defense satellites.

Not visible in the next 10 days
Identifier
53527, 2022-101A
Orbit
Decayed
Country
Flag of USUS
Related business
Manufacturer
SpaceX/Seattle
Mission
Decayed Commercial Communications
Bus & Motor
STARLINK, Unknown motor
Mass
300 kg wet, ~290 kg dry
Launch date (UTC)
2022-08-19 (4 years ago)
Launch vehicle
FALCON 9
Launch site
Air Force Eastern Test Range (AFETR)
Object type
Payload
Rocket body
Debris
Shape & HBR
Box + 1 Pan, 10.1 m
Radar Cross Section
13.562 m², Large (>1 m²)

Expand to show TLE details & history
Last TLE update: 6 months ago

TLE from 6 months ago
0 STARLINK-4511
1 53527U 22101A   25346.57970104  .06845559  12266-4  90564-3 0  9991
2 53527  53.1769  23.1203 0004453 345.0391  15.0523 16.34763056184164
Epoch: 2025-12-12T13:54Z
TLE epoch observation values (Epoch: 2025-12-12T13:54:46.169Z)
Latitude
-0.00001°
Longitude
92.90863°
Altitude
177.893 km
Speed
7.802 km/s
True Right ascension
01h 32m 28s
True Declination
0° 00' 00"
Sunlit
Object was in full shadow at epoch
Visualization orbit readout
Latitude
Unknown
Longitude
Unknown
Altitude
Unknown
Speed
Unknown
Apparent Right ascension
Unknown
Apparent Declination
Unknown
Sunlit
N/A
Visualization observer readout
Local Sidereal Time
21:24:34
Azimuth
Unknown
Elevation
Unknown
Doppler factor
Unknown
Orbital elements
Apogee altitude
182.956 km
Perigee altitude
177.115 km
Semi-major axis
6,558.172 km
Eccentricity
0.00045
Inclination
53.1769°
RAAN
23.1203°
Arg. of periapsis
345.0391°
True anomaly
15.06556°
Mean anomaly
15.0523°
Eccentric anomaly
15.05893°
Mean motion
4.08666 °/min
Orbital period
88.09 mins
BSTAR
0.00090564
Loading maneuver chart data...
Computing Atmospheric mass density...
Loading historical data...
Loading historical data...
Loading historical data...
Loading historical data...
Loading historical data...
Loading historical data...
Loading historical data...

Documentation

Showing up to 5 results
|